SL-19 DEB, 23496

Orbit data source: Space-Track

SL-19 DEB, 23496 is space debris in LEO originally from a launch on Mon, 26 Dec 1994 UTC launched from the Tyuratam Missile And Space Complex (TTMTR). Debris objects in space refer to the collection of defunct objects orbiting the Earth. Examples of debris include non-operational satellites, rocket bodies, and fragments generated from explosions, collisions, or faulty payload assembly.

Loading next visibility...
Identifier
23496, 1994-085U
Orbit
LEO
Country
Flag of CISCIS
Related business
Manufacturer
Unknown
Mission
Spacecraft
Bus & Motor
Unknown
Mass
Unknown
Launch date (UTC)
1994-12-26 (31 years ago)
Launch vehicle
Unknown
Launch site
Tyuratam Missile And Space Complex (TTMTR)
Object type
Payload
Rocket body
Debris
Shape & HBR
Unknown shape, 0.1 m
Radar Cross Section
Medium (>0.1 m² and <1 m²)

Expand to show TLE details & history
Last TLE update: 1 day ago

TLE from 1 day ago
0 SL-19 DEB
1 23496U 94085U   26061.84830103 -.00002873  00000-0 -73500-1 0  9990
2 23496  64.8272  18.8964 0215778 334.2722  49.3048 11.33128801287221
Epoch: 2026-03-02T20:21Z
TLE epoch observation values (Epoch: 2026-03-02T20:21:33.208Z)
Latitude
22.95019°
Longitude
-75.70315°
Altitude
1,880.974 km
Speed
6.998 km/s
True Right ascension
02h 01m 17s
True Declination
22° 50' 37"
Sunlit
Object was in daylight at epoch
Visualization orbit readout
Latitude
Unknown
Longitude
Unknown
Altitude
Unknown
Speed
Unknown
Apparent Right ascension
Unknown
Apparent Declination
Unknown
Sunlit
N/A
Visualization observer readout
Local Sidereal Time
02:02:24
Azimuth
Unknown
Elevation
Unknown
Doppler factor
Unknown
Orbital elements
Apogee altitude
2,174.334 km
Perigee altitude
1,813.043 km
Semi-major axis
8,371.826 km
Eccentricity
0.02158
Inclination
64.8272°
RAAN
18.8964°
Arg. of periapsis
334.2722°
True anomaly
51.21271°
Mean anomaly
49.3048°
Eccentric anomaly
50.25541°
Mean motion
2.83343 °/min
Orbital period
127.05 mins
BSTAR
-0.0735
Loading maneuver chart data...
Computing Atmospheric mass density...
Loading historical data...
Loading historical data...
Loading historical data...
Loading historical data...
Loading historical data...
Loading historical data...
Loading historical data...

Documentation

Showing up to 5 results
|